Wind_Speed
10 10 11 11 11 11 11 12 12 12 13 14 14 15 15 15 16 16 16 16 17 17 17 18 18 18 18 18 18 18 18 18 18 18 18 18 17 17 17 17 16 16 15
11 11 11 11 11 11 11 12 12 13 13 14 15 15 16 16 16 16 17 17 17 17 18 18 18 18 19 19 19 18 18 18 18 18 18 18 18 18 18 17 17 17 17
10 10 10 11 11 11 11 12 12 13 13 14 15 15 16 16 17 17 17 18 18 18 18 18 19 19 19 19 19 18 18 19 19 19 19 18 18 18 18 18 18 17 17
9 10 10 10 11 11 11 12 12 12 13 14 14 15 16 16 17 17 17 18 18 18 19 19 19 19 19 19 19 18 18 19 19 19 19 18 18 18 18 18 18 18 17
9 9 10 10 10 10 11 11 12 12 13 14 14 15 16 16 17 17 17 18 18 18 18 19 19 19 19 19 19 19 19 19 19 19 19 19 19 19 19 18 18 18 17
8 9 9 9 9 10 11 11 12 13 13 14 15 15 16 17 17 18 18 18 18 18 19 19 20 20 19 19 19 19 19 19 20 20 20 19 19 19 19 19 18 18 18
7 8 8 9 10 10 11 12 13 14 14 15 16 16 17 17 18 19 19 19 19 20 20 20 20 20 20 20 20 20 20 21 21 21 21 21 20 20 20 20 20 19 19
8 9 10 11 11 12 13 14 15 15 16 17 17 18 18 19 19 20 20 20 21 21 21 21 21 21 21 21 22 22 22 22 22 22 22 22 22 22 22 22 21 21 21
10 10 11 12 13 14 15 16 16 17 18 18 19 19 20 20 21 21 22 22 22 23 23 23 23 23 23 23 23 23 23 24 24 24 24 23 23 23 24 24 24 24 24
13 13 13 14 15 16 17 17 18 19 19 20 20 21 22 22 23 23 24 24 25 25 25 25 26 26 25 25 25 25 25 26 26 26 26 26 26 26 26 26 26 26 26
15 16 16 17 18 18 19 19 19 20 20 21 22 22 23 24 24 25 25 26 26 27 27 27 28 28 28 28 28 28 28 28 29 29 29 29 29 29 29 29 29 30 30
17 18 18 19 19 20 20 20 21 21 21 22 22 23 24 25 25 26 26 27 28 28 29 29 30 30 30 31 31 31 31 31 32 32 32 32 32 33 33 33 33 34 34
18 19 20 20 20 20 21 21 21 22 22 22 23 23 24 24 25 25 26 27 28 28 29 30 31 31 32 32 33 33 33 34 34 35 35 36 36 36 37 37 37 37 38
19 20 21 22 22 21 21 21 22 22 22 22 23 23 24 24 25 26 27 28 28 29 30 30 31 32 32 33 34 34 35 35 36 37 37 38 39 39 40 40 41 41 42
20 20 21 22 22 22 22 22 22 22 22 23 23 24 24 25 26 27 28 29 29 30 30 31 32 32 33 34 34 35 35 36 36 37 38 39 40 41 42 43 43 44 45
21 20 20 21 22 22 22 22 22 22 23 23 24 25 25 26 27 28 29 30 31 31 32 32 33 33 34 34 35 35 36 36 37 38 39 40 41 42 43 44 45 46 47
21 21 21 21 22 22 22 22 22 23 24 25 26 27 28 28 29 30 30 31 32 32 33 33 34 34 34 35 35 36 36 37 38 39 39 41 42 43 44 45 46 47 48
22 22 21 22 22 22 22 23 23 25 26 27 28 29 30 30 31 32 32 33 33 33 34 34 34 34 35 35 35 36 36 37 38 39 39 40 41 43 44 45 46 47 48
22 22 22 22 22 22 23 24 25 26 27 28 29 30 31 32 32 32 33 33 33 34 34 34 35 35 36 36 36 36 37 37 38 39 40 41 42 43 44 45 46 47 48
22 22 22 22 23 23 24 25 26 27 28 29 30 31 31 32 32 33 33 33 33 34 34 34 34 34 35 36 36 36 37 38 39 40 40 41 43 44 45 46 47 49 50
23 23 23 23 23 24 25 26 27 28 29 29 30 31 32 32 33 33 33 33 33 33 33 34 34 35 36 36 36 36 37 38 39 40 41 42 43 45 46 47 48 50 52
24 24 24 24 24 25 26 27 28 28 29 30 31 32 32 33 33 33 33 33 33 34 35 35 36 36 38 39 39 38 37 38 40 41 42 44 46 47 49 51 52 54 55
25 25 25 25 26 26 27 28 29 29 30 31 32 33 33 34 34 34 34 34 35 36 37 38 38 39 39 40 41 42 42 41 42 42 45 47 49 51 53 55 56 58 59
26 26 26 26 27 28 28 29 30 31 32 33 33 34 35 35 35 35 36 36 37 37 38 39 40 41 41 43 44 46 48 48 48 47 47 49 52 54 56 58 60 61 63
27 27 27 28 28 29 30 31 31 32 33 34 35 36 36 37 37 37 38 39 39 40 41 41 43 44 45 46 48 50 51 53 55 56 54 53 55 56 59 61 62 64 66
27 28 28 29 30 30 31 32 33 34 35 36 36 37 38 38 39 39 40 41 41 42 43 44 46 47 49 50 51 53 54 56 58 60 61 60 59 60 61 63 65 67 69
Wind_Direction
245 250 254 258 262 266 270 272 275 278 281 282 284 285 286 286 286 285 284 283 282 281 279 278 277 276 276 277 277 276 276 276 275 274 273 273 272 272 272 271 271 271 270
245 249 253 257 262 266 269 272 274 277 279 280 281 282 283 284 284 283 282 281 280 278 277 276 276 275 275 275 275 274 273 272 272 271 271 270 269 269 269 268 267 267 267
244 248 253 257 261 265 268 272 275 276 278 279 280 281 282 283 283 282 281 280 279 277 276 275 275 274 273 273 273 272 271 270 270 269 269 268 267 267 266 266 266 265 264
246 250 254 259 262 265 268 272 275 277 278 279 280 282 282 283 283 282 281 280 279 277 276 275 274 274 273 272 270 269 268 268 268 268 268 267 266 264 264 264 264 264 263
246 251 257 261 263 265 268 271 274 277 279 281 282 282 282 283 283 282 280 279 278 278 277 276 275 274 273 271 270 268 268 268 268 267 266 265 264 263 263 263 262 261 261
248 254 260 265 267 269 271 273 276 278 280 281 282 282 282 282 282 281 280 278 277 277 277 276 275 274 272 270 269 268 268 267 266 266 265 264 263 262 261 261 259 259 258
258 262 266 269 271 272 274 275 276 277 278 279 280 280 281 280 280 279 279 277 277 276 276 275 274 273 271 269 268 267 266 265 264 264 264 263 262 261 260 259 257 257 257
272 272 273 274 274 275 275 275 276 276 277 277 278 278 279 279 279 279 278 277 276 275 274 274 273 272 270 269 268 267 266 264 263 263 262 262 261 260 259 258 257 257 257
281 280 279 279 279 279 278 278 278 278 278 278 278 277 277 277 278 278 277 277 276 275 274 273 272 271 270 269 268 267 265 263 262 261 261 260 260 259 258 258 258 258 258
283 284 283 284 284 284 283 282 281 280 280 279 279 278 277 277 277 277 276 276 275 274 273 272 272 271 270 269 267 266 265 263 261 261 260 260 260 260 260 259 259 259 260
280 282 283 284 285 285 285 284 283 283 282 281 280 279 278 277 277 277 276 276 275 274 273 272 271 270 270 269 268 267 265 264 262 261 261 260 260 261 261 260 260 260 261
276 278 280 282 284 285 285 285 284 284 283 282 282 281 280 279 279 278 277 277 276 275 274 273 273 271 270 269 268 267 266 264 263 263 262 262 262 262 262 262 262 261 262
275 278 280 282 283 284 285 285 284 284 284 283 283 283 282 282 281 280 279 278 277 276 275 274 273 273 272 271 269 269 268 266 265 265 264 264 264 263 263 263 263 263 263
275 277 280 282 283 284 284 284 284 284 284 284 284 284 284 284 284 283 282 280 279 277 276 275 274 273 273 272 271 270 270 269 268 267 267 266 266 266 265 265 265 265 265
276 277 279 281 282 283 283 283 284 284 285 285 285 286 286 286 285 285 283 282 281 280 278 277 276 274 273 273 272 272 272 271 270 270 269 269 269 268 268 268 267 267 267
276 276 277 279 281 282 282 283 283 284 286 287 287 287 287 286 286 285 284 283 282 281 280 278 277 276 275 274 274 273 272 272 271 271 270 270 269 269 268 268 268 268 267
275 275 275 277 278 279 280 281 283 285 286 287 287 287 287 287 287 286 284 283 282 281 280 279 278 277 276 275 275 274 273 273 272 271 271 271 270 270 270 270 269 269 269
273 273 274 275 276 277 278 280 282 284 286 287 287 288 288 288 287 286 285 283 282 281 280 279 278 277 276 275 274 274 274 273 273 273 273 273 273 273 273 273 272 272 272
270 272 273 274 275 277 278 280 283 284 286 287 288 289 289 288 287 286 285 284 282 281 280 279 278 277 276 275 275 274 274 274 274 274 274 274 274 274 274 274 274 274 274
268 270 272 274 275 277 279 281 283 285 286 287 289 290 289 289 288 287 285 283 282 281 280 279 279 278 277 276 276 275 275 275 275 275 276 276 276 276 276 276 276 276 275
267 269 271 273 276 278 281 283 284 285 287 288 289 290 290 289 288 287 286 284 282 281 281 280 280 279 278 277 277 276 277 277 277 277 277 277 277 277 277 277 277 277 277
264 267 270 273 276 279 281 283 284 286 287 288 290 291 291 290 288 287 285 283 282 282 282 281 281 281 280 279 279 277 276 277 279 280 280 280 280 279 279 279 279 278 278
263 265 269 272 276 279 281 283 285 286 288 289 290 291 291 290 289 287 285 283 283 283 283 282 282 282 282 282 281 280 278 276 274 276 279 280 281 281 281 281 280 280 279
263 266 269 273 276 279 282 284 286 287 289 291 292 292 291 290 289 286 284 283 283 283 283 283 283 283 283 283 283 283 283 282 279 276 276 279 280 281 281 281 281 281 280
263 267 270 273 276 279 282 284 286 288 289 291 292 293 292 290 288 286 285 284 284 284 284 284 284 284 284 284 284 285 285 285 285 283 281 280 281 282 282 282 282 282 281
264 267 271 274 276 279 282 284 287 289 290 291 293 293 292 291 289 287 286 285 285 285 285 285 285 285 286 286 286 286 286 287 287 286 286 285 284 283 284 284 284 283 283
Height
5884 5884 5885 5885 5885 5886 5886 5886 5886 5886 5886 5886 5886 5886 5886 5886 5886 5885 5885 5884 5884 5883 5883 5882 5882 5881 5881 5881 5880 5880 5879 5879 5878 5878 5878 5877 5877 5877 5876 5876 5876 5876 5876
5882 5882 5883 5883 5883 5883 5883 5884 5884 5884 5884 5884 5884 5883 5883 5883 5883 5882 5882 5881 5881 5880 5880 5879 5879 5878 5878 5877 5877 5876 5876 5875 5875 5874 5874 5874 5873 5873 5873 5873 5873 5873 5872
5880 5880 5881 5881 5881 5881 5881 5881 5881 5881 5881 5881 5881 5881 5880 5880 5879 5879 5878 5878 5877 5877 5876 5876 5875 5874 5874 5874 5873 5873 5872 5872 5871 5871 5870 5870 5870 5869 5869 5869 5869 5869 5869
5878 5878 5879 5879 5879 5879 5879 5879 5879 5879 5879 5878 5878 5878 5877 5877 5876 5876 5875 5875 5874 5873 5872 5872 5871 5871 5870 5870 5869 5869 5868 5868 5867 5867 5866 5866 5866 5865 5865 5865 5865 5865 5865
5876 5876 5876 5876 5876 5876 5876 5876 5876 5876 5876 5876 5875 5875 5874 5874 5873 5873 5872 5871 5870 5869 5869 5868 5867 5867 5866 5866 5865 5865 5864 5863 5863 5862 5862 5862 5862 5861 5861 5861 5861 5861 5861
5874 5874 5874 5874 5874 5874 5874 5874 5874 5874 5873 5873 5872 5872 5871 5870 5870 5869 5868 5868 5867 5866 5865 5864 5863 5863 5862 5861 5861 5860 5860 5859 5859 5858 5858 5858 5857 5857 5857 5857 5856 5856 5856
5872 5872 5872 5872 5872 5872 5872 5872 5871 5871 5870 5870 5869 5868 5868 5867 5866 5865 5864 5864 5863 5862 5861 5860 5859 5859 5858 5857 5857 5856 5856 5855 5854 5854 5854 5853 5853 5853 5852 5852 5852 5852 5852
5870 5870 5870 5870 5869 5869 5869 5869 5868 5868 5867 5867 5866 5865 5864 5863 5862 5861 5860 5859 5859 5858 5857 5856 5855 5855 5854 5853 5853 5852 5851 5851 5850 5850 5849 5849 5848 5848 5848 5847 5847 5847 5847
5867 5868 5867 5867 5867 5866 5866 5865 5865 5864 5864 5863 5862 5861 5860 5859 5858 5857 5856 5855 5854 5853 5852 5852 5851 5850 5849 5849 5848 5847 5847 5846 5845 5845 5845 5844 5844 5843 5843 5843 5842 5842 5842
5865 5865 5864 5864 5864 5863 5862 5862 5861 5861 5860 5859 5858 5857 5856 5855 5854 5853 5852 5851 5849 5849 5848 5847 5846 5845 5844 5844 5843 5842 5841 5841 5840 5840 5839 5839 5838 5838 5838 5837 5837 5837 5837
5862 5862 5861 5861 5860 5859 5859 5858 5857 5856 5855 5855 5854 5853 5852 5850 5849 5848 5847 5846 5844 5843 5842 5842 5841 5840 5839 5838 5837 5837 5836 5835 5835 5834 5834 5833 5833 5832 5832 5831 5831 5831 5830
5859 5858 5858 5857 5856 5855 5855 5854 5853 5852 5851 5850 5849 5848 5847 5845 5844 5843 5842 5840 5839 5838 5837 5836 5835 5834 5833 5832 5831 5830 5830 5829 5828 5828 5827 5827 5826 5826 5825 5825 5825 5824 5824
5856 5854 5853 5853 5852 5851 5850 5849 5848 5847 5846 5845 5844 5843 5842 5840 5839 5838 5836 5835 5834 5832 5831 5830 5829 5828 5827 5826 5825 5824 5823 5822 5822 5821 5820 5820 5819 5819 5818 5818 5817 5817 5817
5851 5850 5849 5848 5847 5847 5846 5845 5844 5843 5842 5841 5839 5838 5837 5835 5834 5832 5831 5829 5828 5826 5825 5824 5822 5821 5820 5819 5818 5817 5816 5815 5814 5814 5813 5812 5811 5811 5810 5810 5809 5809 5808
5846 5846 5844 5843 5842 5842 5841 5840 5839 5838 5837 5836 5834 5833 5832 5830 5828 5826 5825 5823 5821 5820 5818 5817 5816 5814 5813 5812 5811 5809 5808 5808 5807 5806 5805 5804 5803 5802 5801 5801 5800 5800 5799
5841 5841 5840 5839 5838 5837 5836 5835 5834 5833 5832 5831 5829 5828 5826 5825 5823 5821 5819 5817 5815 5813 5812 5810 5809 5807 5806 5804 5803 5802 5801 5799 5798 5797 5796 5794 5793 5792 5791 5790 5790 5789 5789
5836 5836 5835 5834 5833 5833 5831 5830 5829 5828 5827 5825 5824 5822 5821 5819 5817 5815 5813 5811 5809 5807 5805 5803 5801 5800 5798 5797 5795 5794 5793 5791 5790 5788 5787 5785 5784 5782 5781 5780 5779 5778 5777
5831 5831 5830 5830 5829 5828 5827 5826 5824 5823 5822 5820 5818 5816 5814 5812 5810 5808 5806 5804 5802 5800 5798 5796 5794 5792 5790 5789 5787 5786 5784 5783 5781 5779 5777 5776 5774 5773 5771 5770 5769 5767 5766
5825 5825 5825 5824 5823 5823 5822 5820 5819 5817 5816 5814 5812 5810 5808 5805 5803 5801 5798 5796 5794 5792 5790 5788 5786 5784 5783 5781 5779 5778 5776 5774 5772 5770 5769 5767 5765 5763 5761 5759 5758 5756 5755
5820 5819 5819 5818 5818 5817 5816 5815 5813 5811 5810 5807 5805 5803 5801 5798 5796 5793 5791 5789 5786 5784 5782 5780 5778 5776 5774 5772 5771 5769 5768 5765 5763 5761 5759 5757 5755 5753 5751 5749 5747 5745 5743
5814 5814 5813 5813 5812 5811 5810 5808 5807 5805 5803 5801 5798 5796 5793 5791 5788 5786 5783 5781 5779 5776 5774 5772 5770 5768 5765 5764 5763 5761 5759 5756 5754 5752 5749 5747 5745 5742 5740 5738 5736 5733 5731
5808 5808 5808 5807 5806 5805 5804 5802 5801 5798 5796 5794 5791 5789 5786 5783 5780 5778 5775 5773 5771 5768 5766 5764 5762 5759 5756 5754 5753 5752 5751 5749 5745 5742 5739 5736 5734 5731 5728 5726 5723 5721 5718
5802 5802 5802 5801 5800 5799 5797 5796 5794 5791 5789 5787 5784 5781 5778 5775 5773 5770 5767 5765 5762 5760 5757 5755 5752 5750 5747 5744 5741 5740 5739 5739 5737 5735 5730 5726 5722 5719 5716 5713 5710 5707 5703
5796 5796 5795 5794 5793 5792 5790 5788 5786 5784 5782 5779 5776 5773 5770 5767 5764 5762 5759 5756 5754 5751 5748 5745 5743 5740 5738 5735 5731 5728 5725 5723 5721 5722 5722 5717 5712 5708 5703 5699 5695 5691 5687
5790 5789 5788 5787 5786 5785 5783 5781 5779 5777 5774 5771 5768 5765 5762 5759 5756 5753 5750 5747 5744 5742 5739 5736 5733 5730 5727 5724 5720 5717 5713 5709 5705 5703 5704 5703 5699 5694 5689 5685 5680 5675 5670
5783 5782 5781 5780 5779 5777 5775 5773 5771 5768 5766 5763 5760 5757 5754 5750 5747 5744 5741 5737 5734 5731 5728 5725 5722 5718 5715 5711 5708 5704 5700 5696 5692 5687 5684 5684 5682 5679 5674 5669 5663 5657 5652